Location: Del Oro Observatory
(38.3044°N, 104.8119°W)
Time: 23:26:35
(UTC-06:00)

Daily predictions for brighter satellites

Satellite Brightness Start Highest point End
(mag) Time Altitude Azimuth Time Altitude Azimuth Time Altitude Azimuth
Cosmos 1908 4.2 20:51:19 10° NNE 20:54:51 31° ENE 20:58:22 10° SE
OAO 2 Rocket 4.5 20:52:07 10° SSW 20:56:29 26° SSE 21:00:51 10° E
Cosmos 1151 Rocket 3.8 20:56:28 10° NNE 21:00:26 34° ENE 21:04:23 10° SE
Cosmos 1674 3.2 20:57:51 10° SSE 21:01:26 39° E 21:05:03 10° NNE
Cosmos 405 3.9 20:58:51 10° N 21:02:11 33° ENE 21:05:28 10° SE
OE (NEXTSAT) 4.5 21:00:35 10° WNW 21:04:10 75° SSW 21:07:43 10° SE
Cosmos 371 Rocket 4.0 21:01:35 10° NNW 21:06:16 55° WSW 21:10:57 10° S
ALOS 3.3 21:02:40 10° S 21:07:08 47° W 21:11:40 10° NNW
Cosmos 2266 Rocket 4.1 21:02:51 10° SSE 21:08:59 57° E 21:15:03 10° NNE
Cosmos 2292 4.3 21:08:35 10° N 21:11:37 84° W 21:15:01 10° S
Tiangong 1 1.6 21:09:35 10° SW 21:12:27 35° SSE 21:15:20 10° E
Cosmos 1553 Rocket 4.2 21:08:09 10° N 21:14:33 78° W 21:20:49 10° S
Cosmos 1680 Rocket 4.0 21:09:40 10° N 21:14:43 46° ENE 21:19:32 11° SE
YAOGAN 6 4.4 21:12:45 10° ESE 21:15:16 18° ENE 21:17:48 10° NNE
AVUM R/B 3.8 21:13:11 10° SW 21:15:23 42° WNW 21:17:47 10° NNE
Cosmos 923 Rocket 4.0 21:14:10 10° NNW 21:19:23 68° ENE 21:24:27 10° SSE
Cosmos 1833 4.3 21:15:54 10° SSW 21:21:37 85° WNW 21:27:20 10° NNE
Cosmos 1939 Rocket 2.8 21:21:51 10° SSE 21:25:47 82° ENE 21:29:41 10° N
Cosmos 1898 Rocket 4.5 21:22:06 10° SSE 21:26:19 26° E 21:30:35 10° NE
Cosmos 2333 Rocket 4.3 21:23:43 10° NNE 21:26:52 15° NE 21:30:02 10° E
DELTA 2 R/B(2) 2.8 21:25:22 10° W 21:26:57 86° NNW 21:29:07 10° ENE
H-2A R/B 2.2 21:22:49 10° SSE 21:27:21 89° E 21:31:54 10° NNW
ATLAS CENTAUR R/B 4.0 21:25:20 10° WNW 21:27:35 14° WSW 21:29:45 10° SW
USA 229 DEB 4.4 21:20:53 10° SW 21:27:43 61° NW 21:34:40 10° NNE
USA 229 4.4 21:20:59 10° SW 21:27:49 61° NW 21:34:46 10° NNE
Cosmos 1437 Rocket 3.0 21:25:12 10° NNW 21:29:00 69° W 21:32:50 10° S
Cosmos 773 Rocket 4.2 21:26:36 10° NNW 21:31:48 72° WSW 21:37:00 10° S
PSLV R/B 3.5 21:33:00 18° SE 21:34:59 47° ENE 21:37:57 10° N
SPOT 5 2.8 21:32:36 13° SSE 21:36:32 65° ENE 21:41:18 10° N
MetOp-A 4.4 21:33:17 14° SSE 21:37:47 55° ENE 21:43:00 10° N
COSMOS 2428 3.3 21:33:54 10° N 21:39:19 43° ENE 21:43:18 17° SE
Cosmos 2297 Rocket 4.1 21:39:29 11° E 21:39:47 11° E 21:40:57 10° E
Cosmos 304 Rocket 3.8 21:39:16 10° NNW 21:44:06 87° WSW 21:47:58 16° SSE
ARGOS 3.9 21:41:02 17° SE 21:44:39 37° ENE 21:49:34 10° N
Cosmos 2219 Rocket 3.5 21:42:32 10° N 21:47:08 26° ENE 21:50:35 15° ESE
NOSS 3-1 (A) 3.5 21:41:38 10° S 21:47:14 52° ESE 21:53:21 10° NE
Cosmos 1437 3.5 21:48:49 10° SSW 21:52:02 55° W 21:55:16 10° N
Nadezhda 2 Rocket 4.4 21:47:34 10° S 21:53:43 86° E 21:59:50 10° N
Cosmos 1328 4.0 21:51:34 10° SSW 21:55:29 72° W 21:59:27 10° N
Cosmos 1726 2.8 21:53:07 10° N 21:56:41 39° E 21:58:06 27° SE
Cosmos 2237 4.3 21:55:14 10° NNW 22:00:58 70° ENE 22:04:32 24° SE
Envisat 3.7 21:59:41 10° S 22:04:32 50° W 22:09:29 10° NNW
Delta 2 Rocket 2.9 22:04:40 10° W 22:08:10 55° S 22:09:00 41° SE
ATLAS 2AS CENTAUR R/B 3.6 22:05:37 20° SSE 22:09:39 33° ESE 22:16:30 10° NE
Cosmos 2219 3.7 22:04:39 10° SSW 22:10:21 64° WNW 22:16:04 10° NNE
Cosmos 1271 Rocket 3.3 22:10:46 10° N 22:14:25 41° ENE 22:15:19 35° ESE
Cosmos 1703 3.5 22:16:40 39° SE 22:17:34 47° E 22:21:20 10° NNE
SL-14 R/B 3.2 22:15:32 24° S 22:17:49 86° W 22:21:50 10° N
Cosmos 2237 Rocket 3.4 22:13:52 10° N 22:18:52 31° ENE 22:21:31 21° ESE
Meteor 1-4 Rocket 2.9 22:15:27 10° N 22:19:07 50° ENE 22:19:51 42° ESE
Cosmos 2333 4.2 22:13:32 10° NNW 22:19:17 74° ENE 22:22:12 30° SE
Cosmos 2082 4.2 22:19:48 29° SE 22:21:47 39° ESE 22:27:03 10° NE
Cosmos 2242 Rocket 3.7 22:18:13 10° N 22:22:40 63° E 22:24:15 38° SSE
Iridium 2 4.0 22:22:18 41° ESE 22:22:53 45° E 22:26:35 10° NNE
Terra 2.7 22:22:18 28° ESE 22:23:49 34° ENE 22:28:07 10° N
Cosmos 1937 Rocket 3.4 22:21:29 22° S 22:24:53 68° ESE 22:30:03 10° NNE
ATLAS 3B R/B 4.3 22:20:43 10° NNW 22:26:24 25° NE 22:31:15 12° E
Cosmos 2298 Rocket 4.3 22:21:36 10° SSW 22:26:54 70° WNW 22:32:13 10° NNE
Lacrosse 4 Rocket 4.0 22:26:23 10° NNE 22:27:37 11° NE 22:28:53 10° ENE
Sich 1 3.2 22:25:43 23° SSW 22:28:26 75° W 22:32:50 10° N
Cosmos 1862 Rocket 4.5 22:25:12 10° NNE 22:29:05 31° ENE 22:29:43 30° E
CARTOSAT-1 4.3 22:28:16 33° ESE 22:29:15 38° ENE 22:33:16 10° N
Meteor 1-27 4.4 22:23:54 10° NNW 22:29:33 71° W 22:32:55 25° S
Cosmos 2360 Rocket 3.5 22:25:10 10° NW 22:30:08 32° WSW 22:34:09 14° SSW
USA 245 3.1 22:31:03 42° W 22:31:03 42° W 22:33:11 10° NNW
NOAA 11 4.1 22:29:08 30° SSE 22:31:56 86° WSW 22:37:25 10° NNW
Cosmos 2058 4.3 22:28:20 10° SSW 22:32:07 36° WNW 22:35:56 10° N
Cosmos 1633 Rocket 3.2 22:29:42 25° SSW 22:32:12 72° W 22:36:35 10° N
NOSS 3-1 (C) 4.1 22:28:08 10° SW 22:33:51 56° NW 22:40:14 10° NNE
Cosmos 1626 2.9 22:35:44 37° E 22:35:44 37° E 22:38:58 10° NNE
Cosmos 990 Rocket 4.0 22:33:44 36° SSE 22:35:40 59° ESE 22:40:44 10° NNE
DELTA 2 R/B (1) 4.1 22:32:21 10° W 22:37:31 41° SSW 22:38:52 35° S
DELTA 2 DEB (DPAF) 4.1 22:36:20 45° SSE 22:37:41 76° ENE 22:42:10 10° N
OAO 2 Rocket 3.5 22:35:40 10° WSW 22:40:51 54° S 22:42:20 40° ESE
SL-08 RB Rocket 3.9 22:44:59 39° SSW 22:46:28 64° W 22:50:57 10° NNW
SL-23 DEB 4.5 22:44:15 10° WNW 22:48:11 36° SW 22:48:13 36° SW
YAOGAN 6 4.5 22:47:15 19° SW 22:48:41 24° W 22:51:41 10° NW
Tiangong 1 1.9 22:45:58 10° W 22:49:00 49° NNW 22:49:21 46° NNE
CZ-4 R/B 4.5 22:44:18 10° N 22:49:07 55° WNW 22:52:31 18° SW
H-2A R/B 2.1 22:48:40 43° SSE 22:50:26 76° ENE 22:55:53 10° N
COSMOS 2455 4.1 22:45:27 10° N 22:50:41 30° NE 22:53:21 21° E
Cosmos 1300 4.4 22:48:05 10° NNW 22:51:23 27° W 22:52:56 20° SW
Cosmos 2227 Rocket 2.1 22:53:14 33° SSW 22:55:55 81° ESE 23:01:36 10° NNE
IGS 5A 3.3 23:05:39 79° SSE 23:05:54 88° ENE 23:10:05 10° NNW
Cosmos 192 4.4 23:04:19 10° NNW 23:09:12 63° ENE 23:09:49 57° ESE
SeaSat 1 4.1 23:09:19 20° E 23:10:50 23° NE 23:14:42 10° N
Cosmos 2333 Rocket 2.2 23:06:07 10° NNW 23:11:54 86° WSW 23:13:18 54° SSE
SL-16 R/B 3.1 23:07:10 10° N 23:12:25 37° ENE 23:13:53 32° E
Cosmos 1125 Rocket 3.6 23:13:45 55° ESE 23:14:01 56° ESE 23:19:13 10° NNE
Cosmos 1455 2.3 23:10:18 10° NNW 23:13:51 69° WNW 23:13:51 69° WNW
SAR-Lupe-2 3.9 23:14:58 61° NW 23:14:58 61° NW 23:18:04 10° NNW
Okean 1-7 4.4 23:19:11 10° NNE 23:22:21 27° ENE 23:22:21 27° ENE
Cosmos 2297 Rocket 2.1 23:21:13 47° SSW 23:22:57 87° WNW 23:28:39 10° NNE
COSMOS 2428 4.3 23:18:47 10° NW 23:23:15 24° WSW 23:25:20 20° SW
Nadezhda 1 Rocket 4.3 23:18:50 10° NNW 23:24:47 58° W 23:26:55 39° SSW
Cosmos 1703 Rocket 3.9 23:25:52 10° N 23:29:46 55° NE 23:29:46 55° NE
Cosmos 2219 Rocket 2.8 23:25:58 10° NW 23:31:13 43° WSW 23:32:19 38° SW
Cosmos 1869 3.9 23:28:11 10° NNW 23:31:52 53° WNW 23:31:52 53° WNW
Cosmos 372 Rocket 4.3 23:39:23 52° E 23:39:23 52° E 23:44:02 10° NNE
Cosmos 2074 Rocket 4.5 23:38:42 42° ESE 23:39:16 43° E 23:45:10 10° NNE
ERBS 4.4 23:38:38 23° WNW 23:39:42 28° NW 23:42:45 10° NNE
Cosmos 2221 Rocket 3.8 23:35:41 10° N 23:39:53 68° NE 23:39:53 68° NE
Cosmos 1709 Rocket 4.0 23:42:19 51° SSW 23:43:54 74° W 23:50:02 10° N
Meteor 1-26 Rocket 4.2 23:43:13 10° N 23:48:49 64° E 23:49:14 61° ESE
Cosmos 1980 4.3 23:45:08 10° NW 23:50:25 42° WSW 23:51:01 40° WSW
